Hourly Weather Roundup
Issued by NWS Central Illinois

Home | Current Version | Previous Version | Text Only | Print | Product List | Glossary On
Versions: 1 2 3 4 5 6 7 8 9 10 11 12 13 14 15 16 17 18 19 20 21 22 23 24 25 26 27 28 29 30 31 32 33 34 35 36 37 38 39 40 41 42 43 44 45 46 47 48 49 50
000
NZUS43 KILX 210810
HWRILX

AREA WEATHER ROUNDUP
NATIONAL WEATHER SERVICE, LINCOLN IL
300 AM CDT SUN SEP 21 2014


CITY           SKY/WX    TMP DP  RH WIND       PRES   REMARKS
BLOOMINGTON    CLEAR     68  67  96 W15       29.85R
CHAMPAIGN      PTCLDY    68  67  96 W9        29.84S FOG
DECATUR        PTCLDY    71  68  90 W9        29.86R
FLORA          CLOUDY    72  68  88 NW14G25   29.89R THUNDER
GALESBURG      PTCLDY    60  55  83 NW12      29.92R
JACKSONVILLE   CLEAR     72  69  92 NW9       29.90R
LACON          CLEAR     63  55  75 NW16G26   29.86R
LAWRENCEVILLE  CLOUDY    73  68  84 W9        29.87S
LITCHFIELD     CLEAR     69  68  97 W6        29.88F FOG
$$


CITY           SKY/WX    TMP DP  RH WIND       PRES   REMARKS
LINCOLN        CLEAR     71  68  90 W5        29.83R
MACOMB         PTCLDY    63  56  80 NW18G24   29.94R
MATTOON        PTCLDY    70  68  93 SW8       29.84F
MT CARMEL AP   MOCLDY    75  68  78 SW9       29.87S THUNDER
OLNEY-NOBLE AP   N/A     70  68  94 N10G25    29.90R THUNDER
PARIS          PTCLDY    69  68  96 SW7       29.84S THUNDER
PEORIA         CLEAR     66  56  70 NW10G20   29.87R
PONTIAC        CLEAR     68  63  83 NW14G24   29.82R
RANTOUL        CLEAR     70  67  90 W7        29.82F FOG
ROBINSON       TSTM      72  70  93 W10G18    29.88R
SPRINGFIELD    CLEAR     71  68  90 W8        29.87R
TAYLORVILLE    PTCLDY    70  68  94 W12       29.87R
$$

...REGIONAL REPORTS...


CITY           SKY/WX    TMP DP  RH WIND       PRES   REMARKS
CHICAGO O`HARE MOCLDY    65  57  75 NW21G28   29.74R
KANKAKEE       MOCLDY    67  66  94 W10       29.78R
MOLINE         CLEAR     59  52  77 W9        29.90S
MOUNT VERNON   MOCLDY    72  66  83 SW9       29.90F
PITTSFIELD     CLEAR     71  66  84 NW8       29.93R
QUINCY         PTCLDY    65  59  81 NW18      29.94R
ROCKFORD       CLEAR     59  55  87 NW13      29.83R
$$


CITY           SKY/WX    TMP DP  RH WIND       PRES   REMARKS
BURLINGTON     CLEAR     61  55  81 NW8G17    29.94S
CEDAR RAPIDS   CLEAR     54  54 100 W9        29.91F
DES MOINES     CLEAR     57  51  80 W6        30.00S
KIRKSVILLE     CLEAR     61  51  70 N8        30.01R
OTTUMWA        CLEAR     54  51  90 W6        29.98F
ST LOUIS       PTCLDY    74  68  81 W9        29.90F
$$


CITY           SKY/WX    TMP DP  RH WIND       PRES   REMARKS
TERRE HAUTE    CLOUDY    70  67  90 SW9       29.84S
EVANSVILLE     MOCLDY    71  66  84 SW8       29.90F
INDIANAPOLIS   CLOUDY    70  66  87 SW16      29.82F
LAFAYETTE      PTCLDY    67  67 100 W8        29.79S
MADISON        CLEAR     57  51  80 W6        29.75F
MILWAUKEE      MOCLDY    61  55  81 W14G30    29.70R
$$





USA.gov is the U.S. government's official web portal to all federal, state and local government web resources and services.